This is the latest recevied weather packets stored in our database for station/object OE-11344. If no packets are shown the sender has not sent any weather packets the latest 10 day(s).
| Time | Temp. | Humidity | Pressure | Rain* | Wind** | Luminosity | Snow |
|---|---|---|---|---|---|---|---|
| 1787669712 | 14.44° C | 81% | 849.8 hPa | 0 mm | - | 97 W/m² | - |
| 1787668885 | 14.44° C | 79% | 849.6 hPa | 0 mm | - | 211 W/m² | - |
| 1787668512 | 14.44° C | 76% | 849.5 hPa | 0 mm | - | 248 W/m² | - |
| 1787667911 | 14.44° C | 75% | 849.6 hPa | 0 mm | - | 187 W/m² | - |
| 1787667084 | 14.44° C | 75% | 849.5 hPa | 0 mm | - | 229 W/m² | - |
| 1787666712 | 14.44° C | 73% | 849.5 hPa | 0 mm | - | 205 W/m² | - |
| 1787666112 | 14.44° C | 73% | 849.3 hPa | 0 mm | - | 103 W/m² | - |
| 1787665285 | 14.44° C | 74% | 849.3 hPa | 0 mm | - | 133 W/m² | - |
| 1787664912 | 14.44° C | 74% | 849.1 hPa | 0 mm | - | 145 W/m² | - |
| 1787664312 | 15° C | 74% | 849 hPa | 0 mm | - | 145 W/m² | - |
| 1787663485 | 15° C | 74% | 848.9 hPa | 0 mm | - | 169 W/m² | - |
| 1787663112 | 15° C | 74% | 848.9 hPa | 0 mm | - | 266 W/m² | - |
| 1787662512 | 15.56° C | 73% | 848.8 hPa | 0 mm | - | 362 W/m² | - |
| 1787661685 | 15.56° C | 69% | 848.8 hPa | 0 mm | - | 386 W/m² | - |
| 1787661312 | 15° C | 74% | 848.9 hPa | 0 mm | - | 290 W/m² | - |
| 1787660712 | 14.44° C | 76% | 848.9 hPa | 0 mm | - | 175 W/m² | - |
| 1787660123 | 14.44° C | 75% | 848.9 hPa | 0 mm | - | 181 W/m² | - |
| 1787659512 | 14.44° C | 78% | 848.9 hPa | 0 mm | - | 199 W/m² | - |
| 1787658912 | 15.56° C | 71% | 848.8 hPa | 0 mm | - | 260 W/m² | - |
| 1787658085 | 15° C | 73% | 848.7 hPa | 0 mm | - | 423 W/m² | - |
| 1787657711 | 15° C | 70% | 848.7 hPa | 0 mm | - | 217 W/m² | - |
| 1787657111 | 15° C | 69% | 848.6 hPa | 0 mm | - | 181 W/m² | - |
| 1787654485 | 14.44° C | 71% | 848.4 hPa | 0 mm | - | 411 W/m² | - |
| 1787654108 | 14.44° C | 75% | 848.4 hPa | 0 mm | - | 350 W/m² | - |
| 1787652311 | 15.56° C | 58% | 848 hPa | 0 mm | - | 441 W/m² | - |
* Rain latest hour (hover to see other rain measurements)
** Current wind speed in m/s (hover to see current wind gust speed)